DW7898 Weather Reports


time (UTC)temp
F
wind
direction
speed
knots
gust
knots
rain 1hr
in
rain 24hr
in
rain mn
in
humidity
%
barometer
mb
20260905215349 80 121 0.0 1.7 0.00 0.00 0.00 60 1023.2
20260905214348 80 121 0.9 3.5 0.00 0.00 0.00 60 1023.2
20260905213350 80 121 2.6 3.5 0.00 0.00 0.00 59 1023.2
20260905212342 81 121 0.9 2.6 0.00 0.00 0.00 58 1023.2
20260905211342 81 121 1.7 3.5 0.00 0.00 0.00 57 1023.3
20260905210345 81 121 0.9 2.6 0.00 0.00 0.00 56 1023.4
20260905205402 81 121 1.7 3.5 0.00 0.00 0.00 55 1023.4
20260905204358 82 121 1.7 2.6 0.00 0.00 0.00 53 1023.4
20260905203353 82 121 1.7 2.6 0.00 0.00 0.00 53 1023.4
20260905202402 82 121 1.7 2.6 0.00 0.00 0.00 52 1023.5
20260905201356 83 121 0.0 0.0 0.00 0.00 0.00 52 1023.5
20260905200353 83 121 0.0 1.7 0.00 0.00 0.00 51 1023.4
20260905195358 83 121 0.0 3.5 0.00 0.00 0.00 49 1023.2
20260905194351 83 117 0.0 1.7 0.00 0.00 0.00 50 1023.3
20260905193344 83 117 0.9 3.5 0.00 0.00 0.00 51 1023.3
20260905192350 84 117 2.6 3.5 0.00 0.00 0.00 52 1023.3
20260905191351 84 118 0.0 1.7 0.00 0.00 0.00 59 1023.2
20260905190348 85 118 0.0 1.7 0.00 0.00 0.00 59 1023.2
20260905185354 85 118 0.0 0.9 0.00 0.00 0.00 58 1023.2
20260905184345 85 118 0.9 1.7 0.00 0.00 0.00 59 1023.1
20260905183403 85 118 2.6 3.5 0.00 0.00 0.00 59 1023.1
20260905182350 85 116 0.9 3.5 0.00 0.00 0.00 59 1023.0
20260905181402 85 115 1.7 4.3 0.00 0.00 0.00 58 1022.9
20260905180357 86 132 2.6 5.2 0.00 0.00 0.00 57 1022.8
20260905175351 86 137 2.6 5.2 0.00 0.00 0.00 54 1023.0
20260905174344 87 134 2.6 5.2 0.00 0.00 0.00 51 1022.9
20260905173401 87 154 2.6 5.2 0.00 0.00 0.00 51 1023.0
20260905172355 87 139 3.5 7.0 0.00 0.00 0.00 50 1022.9
20260905171346 87 123 4.3 7.8 0.00 0.00 0.00 49 1022.8
20260905165344 88 124 3.5 7.8 0.00 0.00 0.00 45 1022.8
20260905164355 89 130 4.3 9.6 0.00 0.00 0.00 41 1022.8
20260905163350 89 199 3.5 10.4 0.00 0.00 0.00 36 1022.8
20260905162347 90 111 4.3 8.7 0.00 0.00 0.00 35 1022.7
20260905161357 90 88 3.5 9.6 0.00 0.00 0.00 34 1022.8
20260905160348 90 135 1.7 8.7 0.00 0.00 0.00 36 1022.8
20260905155353 90 137 4.3 9.6 0.00 0.00 0.00 34 1022.7
20260905154402 89 124 6.1 10.4 0.00 0.00 0.00 34 1022.7
20260905153351 90 85 4.3 9.6 0.00 0.00 0.00 35 1022.8
20260905152343 90 108 4.3 12.2 0.00 0.00 0.00 33 1022.8
20260905151400 90 154 3.5 12.2 0.00 0.00 0.00 34 1023.0
20260905150348 91 221 1.7 9.6 0.00 0.00 0.00 35 1023.0
20260905145404 92 106 5.2 9.6 0.00 0.00 0.00 35 1023.0
20260905144352 91 117 1.7 9.6 0.00 0.00 0.00 36 1023.0
20260905143349 92 131 4.3 8.7 0.00 0.00 0.00 34 1023.2
20260905142402 92 88 4.3 11.3 0.00 0.00 0.00 33 1023.2
20260905141358 92 72 2.6 10.4 0.00 0.00 0.00 32 1023.1
20260905140359 93 147 4.3 10.4 0.00 0.00 0.00 32 1023.1
20260905135348 92 144 4.3 10.4 0.00 0.00 0.00 32 1023.0
20260905134342 93 129 3.5 11.3 0.00 0.00 0.00 31 1023.2
20260905133344 93 93 6.1 11.3 0.00 0.00 0.00 31 1023.3
20260905132401 93 90 2.6 10.4 0.00 0.00 0.00 30 1023.2
20260905131349 93 94 5.2 10.4 0.00 0.00 0.00 30 1023.3
20260905130351 93 130 6.1 11.3 0.00 0.00 0.00 29 1023.4
20260905125346 93 126 4.3 12.2 0.00 0.00 0.00 29 1023.4
20260905124359 94 108 4.3 11.3 0.00 0.00 0.00 28 1023.3
20260905123351 95 94 1.7 7.0 0.00 0.00 0.00 29 1023.4
20260905122342 94 105 4.3 11.3 0.00 0.00 0.00 29 1023.3
20260905121351 94 177 3.5 8.7 0.00 0.00 0.00 29 1023.5
20260905120350 94 229 3.5 9.6 0.00 0.00 0.00 29 1023.4
20260905115401 94 139 5.2 9.6 0.00 0.00 0.00 30 1023.5
20260905114352 94 141 3.5 8.7 0.00 0.00 0.00 29 1023.5
20260905113347 94 260 3.5 11.3 0.00 0.00 0.00 30 1023.6
20260905112342 94 142 6.1 11.3 0.00 0.00 0.00 30 1023.4
20260905111359 94 97 5.2 12.2 0.00 0.00 0.00 30 1023.3
20260905110351 94 107 4.3 10.4 0.00 0.00 0.00 30 1023.3
20260905105345 94 165 6.1 8.7 0.00 0.00 0.00 30 1023.3
20260905104401 94 66 0.9 11.3 0.00 0.00 0.00 31 1023.3
20260905103358 94 128 7.0 10.4 0.00 0.00 0.00 30 1023.4
20260905102343 94 94 2.6 10.4 0.00 0.00 0.00 31 1023.3
20260905101358 94 98 3.5 7.8 0.00 0.00 0.00 31 1023.4
20260905100354 93 80 2.6 7.8 0.00 0.00 0.00 34 1023.3
20260905095348 92 11 0.9 3.5 0.00 0.00 0.00 38 1023.2
20260905094402 91 10 0.0 2.6 0.00 0.00 0.00 41 1023.3
20260905093400 90 10 1.7 3.5 0.00 0.00 0.00 43 1023.3
20260905092348 89 18 0.0 1.7 0.00 0.00 0.00 45 1023.3
20260905091345 87 18 0.0 2.6 0.00 0.00 0.00 49 1023.2
20260905090401 86 21 0.0 2.6 0.00 0.00 0.00 52 1023.3
20260905085353 85 23 0.0 3.5 0.00 0.00 0.00 55 1023.1
20260905084344 84 28 0.0 2.6 0.00 0.00 0.00 56 1023.1
20260905083403 83 27 0.9 2.6 0.00 0.00 0.00 58 1023.0
20260905082355 82 31 0.0 2.6 0.00 0.00 0.00 60 1022.9
20260905081350 81 34 1.7 2.6 0.00 0.00 0.00 62 1023.0
20260905080350 80 33 0.0 2.6 0.00 0.00 0.00 64 1023.0
20260905075348 80 35 0.0 1.7 0.00 0.00 0.00 67 1022.9
20260905074347 79 35 0.0 2.6 0.00 0.00 0.00 69 1022.8
20260905073347 78 35 0.9 1.7 0.00 0.00 0.00 72 1022.8
20260905072401 77 35 0.0 1.7 0.00 0.00 0.00 74 1022.8
20260905071356 76 35 0.9 2.6 0.00 0.00 0.00 76 1022.8
20260905070359 75 35 0.0 2.6 0.00 0.00 0.00 79 1022.8
20260905065347 74 35 0.0 2.6 0.00 0.00 0.00 79 1022.6
20260905064350 74 35 0.9 2.6 0.00 0.00 0.00 81 1022.5
20260905063352 73 33 0.9 2.6 0.00 0.00 0.00 82 1022.5
20260905062347 73 33 0.9 1.7 0.00 0.00 0.00 82 1022.3
20260905061342 73 33 0.0 1.7 0.00 0.00 0.00 83 1022.2
20260905060342 73 32 0.0 3.5 0.00 0.00 0.00 84 1022.3
20260905055353 73 33 0.0 1.7 0.00 0.00 0.00 85 1022.2
20260905054350 73 33 0.0 0.0 0.00 0.00 0.00 85 1021.9
20260905053351 73 46 0.0 0.0 0.00 0.00 0.00 85 1021.8
20260905052342 73 46 0.0 0.0 0.00 0.00 0.00 85 1021.9
20260905051344 73 46 0.0 0.0 0.00 0.00 0.00 84 1021.6
20260905050357 73 46 0.0 0.0 0.00 0.00 0.00 84 1021.6
20260905045355 73 46 0.0 0.0 0.00 0.00 0.00 84 1021.6
20260905044357 73 46 0.0 0.0 0.00 0.00 0.00 84 1021.6
20260905043341 74 46 0.0 0.0 0.00 0.00 0.00 84 1021.6
20260905042358 74 46 0.0 0.0 0.00 0.00 0.00 84 1021.4
20260905041355 74 46 0.0 0.0 0.00 0.00 0.00 83 1021.5
20260905040356 74 46 0.0 0.0 0.00 0.00 0.00 83 1021.4
20260905035347 74 46 0.0 0.0 0.00 0.00 0.00 83 1021.4
20260905034347 74 46 0.0 2.6 0.00 0.00 0.00 83 1021.5
20260905033349 75 46 1.7 2.6 0.00 0.00 0.00 83 1021.3
20260905032347 75 48 0.0 1.7 0.00 0.00 0.00 83 1021.3
20260905031348 75 48 0.0 1.7 0.00 0.00 0.00 83 1021.2
20260905030350 75 47 0.0 1.7 0.00 0.00 0.00 82 1021.3
20260905025344 75 47 1.7 3.5 0.00 0.00 0.00 82 1021.4
20260905024343 75 119 1.7 3.5 0.00 0.00 0.00 81 1021.3
20260905023345 75 125 0.0 2.6 0.00 0.00 0.00 82 1021.2
20260905022340 76 126 0.0 0.9 0.00 0.00 0.00 82 1021.3
20260905021357 76 126 0.0 1.7 0.00 0.00 0.00 81 1021.3
20260905020359 76 126 0.9 1.7 0.00 0.00 0.00 81 1021.4
20260905015350 76 126 0.0 0.0 0.00 0.00 0.00 81 1021.3
20260905014346 77 127 0.0 0.0 0.00 0.00 0.00 81 1021.3
20260905013346 77 126 0.0 0.0 0.00 0.00 0.00 81 1021.3
20260905012345 77 127 0.0 0.0 0.00 0.00 0.00 80 1021.4
20260905011344 77 127 0.0 0.0 0.00 0.00 0.00 80 1021.4
20260905010350 77 126 0.0 0.0 0.00 0.00 0.00 80 1021.4
20260905005343 77 126 0.0 0.0 0.00 0.00 0.00 80 1021.5
20260905004344 78 126 0.0 0.0 0.00 0.00 0.00 79 1021.6
20260905003344 78 126 0.0 0.0 0.00 0.00 0.00 79 1021.5
20260905002358 78 126 0.0 0.0 0.00 0.00 0.00 78 1021.6
20260905001356 78 126 0.0 0.0 0.00 0.00 0.00 78 1021.7
20260905000352 78 126 0.0 0.0 0.00 0.00 0.00 78 1021.6
20260904235346 78 127 0.0 0.0 0.00 0.00 0.00 78 1021.6
20260904234349 78 126 0.0 0.0 0.00 0.00 0.00 78 1021.7
20260904233346 78 126 0.0 0.0 0.00 0.00 0.00 78 1021.7
20260904232400 78 126 0.0 0.9 0.00 0.00 0.00 77 1021.7
20260904231358 79 126 0.0 1.7 0.00 0.00 0.00 77 1021.8
20260904230358 79 126 0.9 1.7 0.00 0.00 0.00 76 1021.9
20260904225349 79 126 0.9 1.7 0.00 0.00 0.00 76 1021.9
20260904224344 79 126 0.0 0.9 0.00 0.00 0.00 75 1021.9
20260904223345 79 126 0.0 1.7 0.00 0.00 0.00 75 1021.9
20260904222358 79 126 0.9 1.7 0.00 0.00 0.00 75 1021.9
20260904221351 79 126 0.0 2.6 0.00 0.00 0.00 74 1021.8
20260904220349 80 127 0.0 2.6 0.00 0.00 0.00 74 1021.8